Location: Givhans Ferry State Park
(33.0284°N, 80.3868°W)
Time: 05:12:39
(UTC-04:00)

Daily predictions for brighter satellites

Satellite Brightness Start Highest point End
(mag) Time Altitude Azimuth Time Altitude Azimuth Time Altitude Azimuth
SL-16 R/B 4.5 04:04:10 16° N 04:04:10 16° N 04:05:22 10° N
COSMOS 2428 4.4 04:09:53 27° E 04:09:53 27° E 04:13:41 10° NE
CZ-2D R/B 4.5 04:09:40 10° N 04:10:47 16° N 04:10:47 16° N
Okean O Rocket 4.2 04:14:37 10° NE 04:16:33 18° ENE 04:16:33 18° ENE
FALCON 9 R/B 4.3 04:17:39 59° W 04:21:23 87° SSW 05:08:18 10° ESE
Lacrosse 4 Rocket 4.2 04:26:46 14° E 04:26:46 14° E 04:27:51 10° ESE
Cosmos 2360 Rocket 3.6 04:27:51 32° NNE 04:27:51 32° NNE 04:30:48 10° NNE
ADEOS II 3.6 04:32:00 10° NE 04:36:40 31° E 04:37:45 29° ESE
Cosmos 2208 Rocket 4.5 04:48:51 61° ENE 04:48:51 61° ENE 04:53:44 10° NNE
USA 229 DEB 4.3 04:50:45 39° SSE 04:52:48 50° ESE 04:59:25 10° NE
USA 229 4.3 04:50:50 38° SSE 04:52:55 50° ESE 04:59:31 10° NE
Cosmos 2333 Rocket 3.7 04:53:37 21° SSE 04:56:31 33° ESE 05:01:34 10° NE
PSLV R/B 4.1 05:04:24 10° NNE 05:08:40 55° E 05:08:53 54° ESE
Cosmos 2327 Rocket 4.3 05:07:14 10° NNW 05:13:25 66° W 05:13:52 64° WSW
EO 1 Del DPAF 4.2 05:13:26 30° SE 05:14:56 47° ENE 05:18:39 10° N
Nadezhda 1 Rocket 3.8 05:16:39 60° W 05:16:52 61° W 05:22:52 10° N
Cosmos 1610 Rocket 4.4 05:14:00 10° N 05:20:17 81° W 05:26:38 10° S
Meteor 1-12 Rocket 4.1 05:15:45 10° NNW 05:21:21 65° W 05:22:22 55° SW
Cosmos 2333 4.1 05:21:50 62° WSW 05:22:27 67° WNW 05:28:07 10° NNE
Cosmos 1570 Rocket 4.3 05:24:16 48° NW 05:24:16 48° NW 05:28:52 10° N
OTV 4 3.3 05:25:06 13° ESE 05:25:06 13° ESE 05:25:48 10° ESE
Meteor 2-13 Rocket 4.3 05:18:00 10° NNW 05:24:04 66° W 05:27:43 25° SSW
Hubble Space Telescope 2.7 05:24:27 20° SSE 05:24:27 20° SSE 05:27:15 10° ESE
Meteor 1-13 Rocket 4.1 05:23:36 37° S 05:25:56 88° W 05:31:33 10° N
Tiangong 2 2.8 05:34:35 26° N 05:34:53 27° NNE 05:37:37 10° E
CZ-4B DEB 4.1 05:29:40 10° N 05:35:12 70° WNW 05:37:41 34° SSW
CZ-4B R/B 3.1 05:30:12 10° N 05:35:47 69° WNW 05:38:17 33° SSW
Cosmos 2074 Rocket 4.5 05:30:36 10° NNW 05:35:49 37° W 05:35:49 37° W
GPS 2-04 Rocket1 3.0 05:36:09 50° S 05:36:22 51° SSE 05:40:07 10° E
IRS-P2 Rocket 4.4 05:32:31 10° N 05:37:44 76° WNW 05:40:28 29° SSW
Cosmos 1238 Rocket 4.4 05:42:00 16° N 05:42:00 16° N 05:42:41 10° N
Cosmos 1980 3.9 05:37:21 15° S 05:42:06 69° ESE 05:47:43 10° NNE
Cosmos 2341 Rocket 4.0 05:36:07 10° N 05:42:22 83° E 05:48:34 10° S
Cosmos 807 4.4 05:43:18 68° WSW 05:43:34 72° W 05:47:42 10° N
IRS-1C Rocket 4.3 05:39:37 10° N 05:44:41 50° WNW 05:46:22 36° WSW
ERS-2 2.4 05:42:38 10° NNE 05:46:20 68° ESE 05:48:54 18° S
IRAS Rocket 4.3 05:43:34 10° N 05:48:59 57° WNW 05:52:15 24° SW
CZ-2C R/B 3.6 05:45:00 10° S 05:49:36 72° WSW 05:54:08 10° NNW
Cosmos 2219 Rocket 2.2 05:48:29 30° SW 05:51:07 59° WNW 05:56:38 10° NNE
Cosmos 1763 Rocket 4.2 05:47:56 10° S 05:52:48 52° ESE 05:57:45 10° NNE
COSMOS 2428 3.5 05:51:56 29° W 05:52:58 31° WNW 05:58:00 10° N
Okean O Rocket 2.6 05:50:30 10° NNW 05:54:01 28° WNW 05:54:01 28° WNW
Cosmos 1025 Rocket 2.9 05:51:42 10° S 05:56:04 88° WNW 06:00:29 10° N
NOSS 0 Rocket 3.8 05:53:03 15° SSW 05:58:21 78° WNW 06:04:32 10° NNE
Meteor 1-23 Rocket 4.3 05:53:18 10° S 05:59:07 90° ENE 06:04:55 10° N
GENESIS II 4.2 05:57:23 32° SW 05:59:09 72° WNW 06:03:14 10° NNE
Meteor 2-9 Rocket 4.3 05:55:09 10° N 06:00:48 77° E 06:06:16 10° SSE
Cosmos 1437 3.1 05:57:53 10° S 06:01:07 66° E 06:04:22 10° NNE
Cosmos 1844 Rocket 2.5 05:57:23 10° NNW 06:02:56 70° WSW 06:08:27 10° S
Lacrosse 4 Rocket 2.1 06:03:25 30° WSW 06:03:28 30° WSW 06:07:15 10° S
DELTA 2 R/B (1) 4.4 06:02:43 19° WNW 06:06:19 43° N 06:11:36 10° ENE
Cosmos 841 Rocket 4.1 06:01:39 10° S 06:06:41 57° ESE 06:11:44 10° NNE
Cosmos 1892 Rocket 4.2 06:02:33 10° S 06:06:47 56° E 06:11:04 10° NNE
Okean-O 2.5 06:03:44 10° N 06:08:11 79° WNW 06:12:35 10° SSW
USA 116 3.9 06:06:01 10° SSE 06:10:04 87° W 06:14:43 10° NNW
Cosmos 2285 Rocket 4.1 06:04:07 10° SSW 06:10:25 59° WNW 06:16:47 10° N
EXPRESS MD2 3.4 06:07:03 19° SW 06:11:08 86° NW 06:14:17 10° NE
NOAA 6 4.3 06:08:44 10° NNE 06:13:51 71° ESE 06:18:56 10° S
ADEOS II 3.1 06:11:56 10° NNW 06:16:11 26° WNW 06:18:42 18° WSW
Cosmos 1814 Rocket 4.0 06:12:18 10° SSW 06:17:26 59° WNW 06:22:33 10° N
Cosmos 2278 Rocket 2.8 06:12:56 10° NNW 06:18:34 62° ENE 06:24:09 10° SSE
Cosmos 2237 Rocket 2.2 06:13:26 10° SSW 06:19:01 60° WNW 06:24:40 10° NNE
Cosmos 2298 Rocket 4.0 06:13:58 10° NNW 06:19:20 89° ENE 06:24:39 10° SSE
Cosmos 1441 Rocket 3.9 06:16:20 10° S 06:20:12 58° E 06:24:08 10° NNE
Gblst 52 Del rocket 4.4 06:16:21 10° NW 06:22:13 73° SW 06:28:54 10° SE
Aureole 2 Rocket 3.0 06:19:54 15° SW 06:22:40 40° WNW 06:25:58 10° N
Cosmos 1959 Rocket 4.5 06:17:06 10° N 06:23:14 88° E 06:29:23 10° S
Cosmos 1515 4.0 06:21:13 10° S 06:25:03 71° E 06:28:54 10° N
Meteor 2-4 Rocket 4.1 06:19:59 10° SW 06:25:12 39° WNW 06:30:20 10° N
Cosmos 405 Rocket 3.1 06:22:30 10° SSW 06:26:24 45° W 06:30:18 10° N
Cosmos 371 Rocket 3.3 06:21:41 10° SSW 06:26:32 86° ESE 06:31:25 10° NNE
Meteor 1-15 Rocket 4.3 06:23:06 10° N 06:29:02 83° W 06:34:57 10° S
Okean 2 3.7 06:26:07 10° SSW 06:30:06 46° W 06:34:08 10° N
USA 215 3.3 06:23:43 10° SSE 06:30:10 60° SW 06:36:38 10° NW
Cosmos 332 Rocket 3.8 06:25:22 10° SSW 06:30:14 64° WNW 06:35:06 10° N
Cosmos 1666 3.6 06:27:58 10° NNW 06:31:19 28° W 06:34:39 10° SSW
ATLAS 5 CENTAUR R/B 2.8 06:25:56 10° NNW 06:32:07 73° ENE 06:38:43 10° SE
GOES 2 Rocket 4.1 06:30:18 14° WSW 06:34:23 48° S 06:40:31 10° ESE
Cosmos 1346 3.2 06:32:16 10° S 06:35:04 70° E 06:37:54 10° NNE
Cosmos 2366 rocket 4.0 06:30:20 10° N 06:36:43 82° W 06:43:03 10° S
Cosmos 1743 4.5 06:36:47 10° WNW 06:38:35 13° W 06:40:24 10° WSW
OAO 3 Copernicus 4.4 06:35:01 10° WNW 06:39:58 76° N 06:45:00 10° E
Cosmos 2333 Rocket 3.2 06:35:52 10° WSW 06:40:44 28° WNW 06:45:38 10° N
SKYMED 2 3.7 06:37:36 10° SSE 06:41:56 80° ENE 06:46:16 10° N
Cosmos 2058 Rocket 3.1 06:42:12 10° N 06:46:41 88° WSW 06:51:07 10° S
Cosmos 1867 3.5 06:41:46 10° NNW 06:47:12 73° WSW 06:52:34 10° SSE
Meteor 1-31 Rocket 4.1 06:44:51 10° NNW 06:47:41 20° WNW 06:50:31 10° WSW
CZ-4 R/B 4.4 06:45:26 10° NE 06:48:18 19° E 06:51:09 10° SE
NOSS 3-1 (A) 3.4 06:50:18 10° SW 06:55:56 69° WNW 07:02:13 10° NNE
Nadezhda 3 Rocket 4.1 06:51:52 10° S 06:58:00 89° E 07:04:12 10° N
